GFSFLT2_sfc_rhum_144.txt.gz
RH
96 96 95 97 98 98 98 96 96 96 96 96 96 96 94 94 94 94 95 95 93 92 92 91 90 89 88 89 91 90 85 93
96 96 97 98 97 99 99 98 97 97 97 96 97 97 95 95 96 96 96 95 93 92 92 92 91 89 88 91 90 85 88 88
95 96 97 98 98 96 99 98 98 98 98 97 100 98 97 96 96 97 96 96 93 93 93 93 93 89 87 85 85 82 88 93
92 95 95 93 82 97 98 95 96 97 98 96 98 99 98 94 97 97 97 96 94 94 94 94 96 95 94 88 86 81 90 91
44 59 79 94 81 95 99 92 92 91 97 93 97 97 99 99 99 98 99 97 98 96 97 98 95 95 93 93 86 83 91 92
49 55 68 67 87 92 97 98 90 91 91 94 94 98 99 98 99 93 92 99 99 98 99 98 96 93 90 90 86 84 95 91
50 51 63 71 79 86 94 94 94 91 92 95 96 96 98 98 98 94 89 98 98 99 98 96 97 93 90 87 83 82 91 91
50 51 55 64 74 78 84 94 93 95 90 92 96 93 94 96 97 95 91 98 95 96 97 96 93 94 89 86 79 79 76 86
52 52 56 65 69 70 82 86 90 96 93 89 92 90 91 90 94 95 96 96 94 93 96 95 94 90 87 88 76 72 75 77
52 51 58 62 66 68 66 79 85 90 96 93 89 86 88 86 89 92 92 93 90 90 89 92 90 87 86 87 76 71 74 74
54 56 60 64 66 67 73 76 83 82 90 85 90 85 83 88 84 88 94 92 89 86 87 88 90 88 84 85 78 74 66 75
56 57 61 66 69 69 69 75 75 79 84 86 76 82 80 90 82 86 92 90 90 86 86 88 85 85 77 81 80 74 73 73
60 64 66 68 74 77 76 79 74 83 76 77 79 77 84 88 86 85 89 87 87 86 87 92 89 87 96 91 86 88 76 72
64 65 67 66 69 71 74 76 82 83 82 74 79 79 78 79 81 86 85 82 88 87 84 86 88 91 86 93 96 90 95 89
68 66 66 63 68 70 71 73 81 87 82 78 76 84 79 79 77 89 88 83 85 88 82 80 86 95 84 86 98 88 95 96
72 68 68 64 67 74 79 81 82 76 83 81 80 68 81 78 80 80 91 87 82 84 82 80 77 83 98 86 90 92 92 95
71 67 69 69 70 73 81 87 84 81 81 89 87 80 81 80 78 84 91 93 84 84 86 87 82 82 81 91 95 96 93 95
70 72 73 73 74 77 80 90 92 87 84 86 93 88 82 81 83 88 88 92 94 89 88 88 83 81 84 86 82 84 95 99
75 79 84 80 84 85 83 89 90 91 86 88 91 92 88 83 92 91 90 90 89 90 91 90 88 84 85 89 83 80 95 94
79 81 92 88 92 93 87 88 91 90 89 91 88 87 89 95 96 93 84 79 93 91 86 88 90 86 89 87 89 91 88 95

GFSFLT2_sfc_rhum_147.txt.gz
RH
96 96 96 98 98 98 98 98 97 96 95 96 96 96 95 94 94 94 95 95 93 92 92 91 91 91 90 91 90 90 94 92
76 97 97 98 97 100 98 97 97 97 97 97 98 98 96 95 96 95 96 95 93 92 92 92 92 91 91 92 90 88 93 88
48 52 57 83 94 95 99 99 98 98 98 98 100 99 97 96 97 97 97 96 94 92 93 94 94 92 91 92 87 85 92 96
47 54 64 60 67 93 97 92 93 96 97 99 98 99 98 96 98 98 98 97 95 94 94 94 96 97 97 91 87 89 93 95
49 55 60 65 68 73 98 97 95 94 90 91 91 92 99 98 98 99 98 98 99 97 98 98 97 98 97 97 88 88 96 96
51 55 62 62 70 83 89 76 92 96 89 90 92 94 92 94 91 91 90 94 99 98 99 98 97 96 94 94 90 88 98 96
54 53 59 61 68 80 83 84 86 85 92 91 94 96 94 89 90 87 86 88 96 99 98 98 97 96 95 92 89 86 92 96
53 53 57 60 66 72 76 88 90 87 88 91 90 96 92 95 92 89 85 86 91 98 98 97 96 95 93 94 88 86 88 91
55 53 57 59 67 68 72 81 82 90 89 83 92 85 86 94 95 89 85 84 90 98 98 98 98 95 93 90 91 84 79 81
56 54 61 64 66 71 68 73 82 87 89 88 88 90 87 92 93 93 86 86 90 95 96 98 95 94 89 90 86 89 81 82
61 61 64 66 66 72 74 74 76 80 85 87 80 85 88 84 92 90 91 90 90 91 94 92 93 92 87 85 86 87 82 76
62 64 66 67 68 70 73 74 72 74 82 85 81 79 81 86 86 92 90 90 91 93 91 92 85 85 82 78 87 85 85 77
68 70 69 70 71 74 73 75 71 73 75 79 83 84 79 88 89 88 91 92 89 88 94 94 92 90 98 97 97 91 87 73
72 71 67 69 70 69 70 72 74 69 72 78 78 82 84 83 87 87 86 91 88 90 94 94 94 93 88 96 98 94 97 86
71 69 67 65 66 69 70 71 74 76 73 71 75 79 84 86 80 87 85 91 97 91 93 92 95 94 82 88 98 93 96 96
71 68 69 64 66 72 78 79 86 83 81 76 69 70 80 85 84 84 87 85 89 94 92 92 91 94 96 81 89 92 94 94
70 67 67 68 70 73 81 83 84 84 85 84 80 75 78 82 86 86 91 88 84 94 96 95 93 88 91 90 94 96 92 95
69 69 69 68 71 74 77 84 92 92 90 90 86 85 79 81 86 87 90 92 92 88 92 94 96 90 88 88 84 80 90 96
72 72 73 71 74 78 82 88 90 93 91 91 92 89 80 80 84 93 94 95 93 92 95 90 88 92 86 90 84 77 82 89
77 75 79 76 77 80 80 87 92 94 92 90 91 91 90 88 88 88 90 89 89 95 95 92 91 92 91 86 88 83 78 84

GFSFLT2_sfc_rhum_150.txt.gz
RH
53 58 61 77 98 99 99 99 97 96 94 95 96 96 95 94 94 93 95 96 94 91 91 91 91 91 90 92 93 91 89 93
50 53 56 61 74 96 97 99 99 98 97 98 98 98 96 95 95 95 95 95 94 92 91 92 91 92 92 93 92 91 91 87
51 56 54 62 57 67 93 94 96 99 99 98 100 99 98 96 97 97 96 96 94 92 92 93 94 94 92 92 91 84 90 89
52 55 57 61 51 72 75 76 95 96 98 98 96 96 99 97 97 98 97 98 96 94 93 95 95 97 97 92 90 86 91 92
54 55 57 60 59 68 85 73 86 92 97 96 97 94 95 98 96 97 97 98 99 98 98 98 98 98 96 96 92 86 93 93
54 54 57 59 61 69 85 73 83 89 90 88 99 98 97 94 94 86 88 89 92 99 99 98 98 97 95 94 92 87 96 93
57 54 59 58 60 68 69 79 85 85 83 82 86 97 97 96 95 95 89 86 89 94 99 99 98 97 96 93 91 87 90 95
58 56 60 62 65 67 73 82 84 88 89 87 85 90 96 97 96 95 94 87 86 90 92 98 96 97 96 94 89 88 86 93
62 58 61 65 66 68 72 74 79 85 86 88 88 86 86 89 95 95 94 92 89 89 94 99 99 96 96 94 92 90 85 88
62 60 65 67 68 69 70 72 77 81 85 87 87 86 86 86 89 94 92 95 94 90 93 92 96 95 92 92 91 91 90 89
68 68 68 69 70 70 73 72 74 72 79 82 84 83 84 90 90 87 93 97 95 95 95 92 92 95 91 88 91 90 89 86
68 68 68 68 70 71 72 72 71 71 72 76 79 82 83 87 89 89 91 96 97 96 95 94 91 91 86 82 87 87 87 90
69 70 71 70 72 76 77 77 73 72 71 72 75 76 81 86 90 90 88 93 94 95 90 92 98 95 98 96 96 95 94 92
71 70 67 65 66 66 71 74 71 68 67 74 75 77 76 74 80 89 89 88 93 92 93 96 97 96 93 95 93 90 97 91
73 67 64 65 66 67 70 71 71 74 74 72 74 76 77 73 77 83 91 92 89 92 95 96 96 97 91 89 98 87 85 98
71 66 65 62 66 72 74 76 81 80 80 76 75 75 78 74 77 83 90 92 93 93 96 94 97 96 98 92 94 91 93 95
71 68 67 65 67 70 77 81 81 76 83 85 82 78 80 80 76 77 85 91 92 94 96 97 94 92 94 93 93 98 95 90
69 69 68 68 71 73 77 80 86 85 82 87 86 83 81 80 80 87 88 89 89 93 94 93 95 95 91 95 88 84 93 95
69 72 73 72 73 78 78 80 84 90 90 88 89 88 86 86 86 89 90 88 88 89 92 94 92 92 88 84 88 91 83 84
77 78 77 75 75 80 77 78 86 88 89 89 91 91 91 85 86 85 86 86 87 89 92 94 93 94 88 88 85 92 91 84

GFSFLT2_sfc_rhum_153.txt.gz
RH
61 56 58 67 70 82 93 96 98 98 95 95 95 96 96 93 92 93 94 95 94 91 90 91 91 91 91 94 94 90 56 57
52 52 52 56 55 66 73 81 94 95 96 98 97 97 97 96 94 94 94 96 95 92 91 92 92 92 92 93 93 91 57 59
48 46 49 52 42 51 64 70 73 89 89 95 97 82 74 76 83 93 95 96 96 93 92 92 93 93 93 93 92 52 54 54
43 50 51 50 38 52 54 54 60 69 78 78 87 86 90 88 84 97 97 97 97 95 93 93 92 60 61 86 57 55 55 54
44 52 56 53 49 49 49 49 57 63 70 75 81 88 81 82 89 80 80 88 80 80 74 67 63 62 60 61 58 60 54 53
46 48 56 59 51 49 51 51 57 56 65 72 72 82 91 86 88 92 82 77 86 86 74 70 69 69 68 66 65 57 53 56
52 51 57 57 59 56 56 58 57 62 57 64 69 74 86 89 88 90 92 79 78 90 88 73 69 68 68 68 63 60 58 59
56 53 59 58 61 64 62 60 60 58 59 65 73 73 76 78 88 90 90 89 86 80 91 91 69 65 67 68 64 58 56 58
58 56 59 62 62 60 59 58 61 58 57 69 71 73 74 76 75 80 88 89 88 87 83 93 81 67 67 64 63 64 56 56
56 54 59 62 63 60 56 58 60 57 58 59 70 70 70 73 77 79 85 91 92 90 92 97 97 79 72 66 61 60 61 58
58 61 62 62 62 59 61 63 58 57 58 57 66 66 69 70 71 74 78 86 90 96 96 97 97 95 76 70 63 60 59 54
58 59 62 61 59 59 57 58 58 57 56 57 67 64 68 68 68 73 76 78 84 90 92 88 87 93 82 67 66 62 58 58
60 61 63 59 58 61 63 65 60 60 56 62 64 66 71 71 69 73 78 85 83 85 92 94 96 93 93 90 70 68 68 59
62 60 59 57 56 59 63 64 60 62 61 65 64 67 72 67 77 78 80 84 83 87 85 93 94 90 94 93 93 77 72 69
61 60 58 61 64 61 64 64 65 66 70 70 67 68 72 73 76 82 84 82 88 87 88 87 96 93 91 90 96 81 72 70
58 60 58 59 65 67 74 77 79 72 72 70 68 68 70 70 77 81 85 85 88 90 82 90 89 93 91 89 88 84 76 75
59 60 60 64 67 70 75 77 76 70 74 75 72 71 70 72 79 83 86 87 88 90 91 91 90 90 94 94 93 96 97 94
59 62 61 65 66 69 74 77 80 80 79 79 76 71 72 72 76 82 84 86 88 90 89 91 93 92 85 85 90 91 88 94
62 64 64 66 68 69 71 72 76 80 80 81 84 80 75 76 74 83 84 84 84 85 90 92 90 94 87 84 81 83 84 80
67 66 68 67 73 71 69 70 75 78 81 82 85 83 81 74 74 76 77 78 80 83 88 91 91 92 90 85 78 79 84 85

GFSFLT2_sfc_rhum_156.txt.gz
RH
49 47 48 56 62 67 71 75 85 94 94 95 93 95 96 92 92 92 93 94 94 93 91 90 90 91 91 93 93 89 50 38
42 43 42 45 43 58 62 64 70 80 81 88 95 97 96 98 95 93 92 94 95 94 92 92 91 92 92 94 93 91 49 40
39 37 41 41 32 39 51 56 63 68 65 75 80 71 62 64 77 87 92 94 96 95 94 92 93 93 93 94 94 46 40 37
31 42 44 41 27 38 38 37 40 45 52 56 54 70 82 74 82 95 95 96 96 96 96 94 91 49 46 85 54 42 39 38
33 43 49 46 39 35 33 34 40 40 49 56 51 48 67 84 86 80 75 85 70 66 65 61 55 48 39 41 43 44 39 35
36 40 49 52 40 38 38 37 40 40 43 56 53 46 50 54 78 90 85 80 75 73 74 62 50 50 49 47 47 43 38 36
44 44 51 50 50 46 44 46 43 47 42 50 54 52 54 52 51 54 80 89 88 83 81 63 56 52 49 51 48 46 45 37
46 44 52 50 51 56 49 47 48 43 43 51 60 58 58 53 52 47 46 55 86 92 88 79 65 61 54 52 51 45 42 44
47 46 51 53 52 49 46 46 46 44 44 53 57 59 58 60 50 50 48 50 62 70 86 84 85 76 62 52 54 53 43 42
45 44 49 53 55 49 44 47 47 45 45 45 57 60 59 58 50 50 52 56 51 54 72 90 94 85 87 80 56 53 49 49
46 50 51 52 51 46 48 52 46 44 44 45 55 55 60 58 52 53 65 60 58 54 58 82 96 91 78 79 67 63 56 41
45 47 52 51 46 46 42 42 42 44 44 48 56 52 61 63 59 63 65 68 68 65 75 71 89 90 79 74 71 69 60 46
46 49 52 48 43 46 46 48 46 46 45 53 55 56 64 68 65 64 64 71 74 76 80 86 80 87 84 83 70 66 64 58
46 45 47 46 42 45 49 50 46 46 47 52 53 57 62 62 68 72 70 80 81 80 79 85 85 83 95 87 89 84 82 68
44 46 46 50 54 46 49 48 46 48 49 49 52 56 61 66 70 73 75 78 84 82 81 87 92 78 78 92 88 77 74 73
46 48 46 48 54 54 60 53 55 55 56 52 51 56 60 63 70 71 71 77 83 86 78 90 91 95 87 84 81 70 76 77
47 48 46 50 54 60 58 61 59 56 58 62 60 58 59 60 67 69 72 74 79 82 86 89 91 95 95 95 85 84 83 90
48 48 46 51 56 58 64 66 65 64 64 63 59 56 55 60 63 67 69 73 78 80 80 82 88 90 90 90 94 90 91 88
48 49 49 53 59 59 59 63 66 66 66 64 68 63 60 62 64 68 69 71 71 76 78 81 79 89 89 89 90 92 78 80
52 51 52 55 59 58 55 56 60 61 64 64 68 68 65 63 64 64 67 68 74 74 76 80 82 87 88 89 88 87 87 75

GFSFLT2_sfc_rhum_159.txt.gz
RH
46 44 46 58 66 60 65 67 69 76 77 82 89 94 95 92 89 91 92 93 94 94 93 91 90 91 91 90 94 91 61 42
39 41 40 40 39 61 65 64 69 72 70 72 77 92 94 94 93 91 91 92 93 95 95 93 91 91 92 92 94 91 58 43
37 36 39 37 28 36 50 56 60 61 55 66 58 58 67 79 83 87 91 91 92 94 96 95 93 93 92 94 94 56 43 38
28 41 42 39 24 35 34 33 36 40 46 52 46 49 47 62 77 90 94 95 93 94 95 96 93 58 52 88 61 49 41 36
30 42 48 45 36 32 30 31 37 37 45 53 51 46 46 42 44 58 82 84 84 82 69 65 60 51 44 45 50 48 41 34
32 37 47 50 39 36 35 35 38 38 40 54 52 47 50 52 45 44 45 69 84 84 88 81 74 64 50 48 44 40 38 37
40 40 48 47 47 45 44 45 41 43 39 48 52 52 54 51 50 47 44 39 48 85 90 86 82 73 66 47 45 45 46 39
42 40 48 46 47 52 47 46 46 40 40 48 56 56 57 51 50 45 42 42 42 47 59 83 84 81 78 69 59 48 44 46
42 41 47 49 48 45 43 44 43 41 41 48 54 56 57 59 49 47 44 51 56 50 48 49 68 68 74 77 77 64 48 45
40 39 45 49 50 44 40 43 43 41 40 42 55 55 57 58 51 49 54 55 52 52 52 50 53 64 75 77 82 79 75 59
40 44 47 47 46 42 43 45 41 40 40 43 53 51 57 58 52 54 61 56 57 55 55 60 69 79 77 80 73 79 73 64
39 41 47 45 41 41 38 39 39 40 40 45 52 50 56 58 54 59 62 60 61 69 76 67 66 73 71 67 73 84 76 78
39 42 46 42 37 40 42 43 41 41 40 48 50 53 58 58 57 61 62 65 68 69 72 77 74 65 81 78 66 64 77 78
38 38 41 41 38 39 45 45 42 42 42 46 49 53 58 53 62 63 64 68 73 73 74 81 76 73 91 93 85 65 61 68
38 39 40 45 49 41 45 42 41 43 44 44 50 52 56 59 61 63 65 65 72 70 72 80 92 83 82 96 91 69 54 57
40 41 40 42 49 47 54 47 48 48 47 46 47 52 54 56 63 64 65 66 68 74 66 78 84 91 86 72 89 94 95 74
44 42 42 45 48 53 51 55 50 48 50 55 54 53 54 55 62 66 66 65 68 74 76 76 79 88 89 90 87 89 87 92
44 43 42 48 50 52 55 58 58 55 56 54 54 52 52 56 60 65 66 67 68 68 71 74 74 80 82 86 90 94 94 95
42 44 44 48 52 51 52 53 55 55 56 57 60 57 56 58 62 64 64 66 66 66 68 72 74 82 84 84 85 87 88 90
47 44 46 48 51 51 50 51 49 49 54 57 56 56 56 58 61 61 62 64 66 67 66 72 74 82 87 86 86 83 84 87